| time (UTC) | temp C | wind direction | speed KPH | gust KPH | rain 1hr cm | rain 24hr cm | rain mn cm | humidity % | barometer mb |
| 20260507030036 | 25 | 72 | 1.6 | 14.5 | 0.00 | 0.00 | 0.00 | 38 | 1001.4 |
| 20260507025529 | 25 | 55 | 4.8 | 14.5 | 0.00 | 0.00 | 0.00 | 37 | 1001.2 |
| 20260507025030 | 26 | 150 | 1.6 | 12.9 | 0.00 | 0.00 | 0.00 | 35 | 1001.0 |
| 20260507024516 | 26 | 240 | 1.6 | 14.5 | 0.00 | 0.00 | 0.00 | 35 | 1000.9 |
| 20260507024012 | 26 | 164 | 0.0 | 14.5 | 0.00 | 0.00 | 0.00 | 34 | 1000.7 |
| 20260507023511 | 26 | 170 | 0.0 | 9.7 | 0.00 | 0.00 | 0.00 | 34 | 1000.7 |
| 20260507023010 | 26 | 258 | 0.0 | 8.0 | 0.00 | 0.00 | 0.00 | 34 | 1000.5 |
| 20260507022510 | 26 | 70 | 0.0 | 16.1 | 0.00 | 0.00 | 0.00 | 32 | 1000.6 |
| 20260507022010 | 26 | 201 | 1.6 | 9.7 | 0.00 | 0.00 | 0.00 | 31 | 1000.5 |
| 20260507021602 | 26 | 219 | 1.6 | 12.9 | 0.00 | 0.00 | 0.00 | 31 | 1000.5 |
| 20260507021052 | 27 | 217 | 1.6 | 17.7 | 0.00 | 0.00 | 0.00 | 31 | 1000.3 |
| 20260507020552 | 27 | 42 | 0.0 | 11.3 | 0.00 | 0.00 | 0.00 | 31 | 1000.3 |
| 20260507020052 | 27 | 155 | 0.0 | 8.0 | 0.00 | 0.00 | 0.00 | 29 | 1000.2 |
| 20260507015551 | 28 | 107 | 0.0 | 1.6 | 0.00 | 0.00 | 0.00 | 26 | 1000.1 |
| 20260507015051 | 28 | 236 | 0.0 | 1.6 | 0.00 | 0.00 | 0.00 | 25 | 1000.0 |
| 20260507014534 | 28 | 236 | 0.0 | 1.6 | 0.00 | 0.00 | 0.00 | 26 | 999.7 |
| 20260507014036 | 28 | 236 | 0.0 | 1.6 | 0.00 | 0.00 | 0.00 | 26 | 999.6 |
| 20260507013534 | 28 | 267 | 0.0 | 1.6 | 0.00 | 0.00 | 0.00 | 26 | 999.5 |
| 20260507013037 | 28 | 266 | 0.0 | 1.6 | 0.00 | 0.00 | 0.00 | 25 | 999.5 |
| 20260507012535 | 28 | 260 | 0.0 | 1.6 | 0.00 | 0.00 | 0.00 | 26 | 999.5 |
| 20260507012034 | 28 | 253 | 0.0 | 1.6 | 0.00 | 0.00 | 0.00 | 25 | 999.5 |
| 20260507011522 | 28 | 248 | 0.0 | 1.6 | 0.00 | 0.00 | 0.00 | 25 | 999.5 |
| 20260507011015 | 28 | 249 | 0.0 | 1.6 | 0.00 | 0.00 | 0.00 | 24 | 999.3 |
| 20260507010515 | 29 | 262 | 0.0 | 1.6 | 0.00 | 0.00 | 0.00 | 24 | 999.4 |
| 20260507010028 | 29 | 246 | 0.0 | 1.6 | 0.00 | 0.00 | 0.00 | 24 | 999.4 |
| 20260507005515 | 29 | 249 | 0.0 | 1.6 | 0.00 | 0.00 | 0.00 | 24 | 999.3 |
| 20260507005021 | 30 | 264 | 0.0 | 0.0 | 0.00 | 0.00 | 0.00 | 24 | 999.3 |
| 20260507004557 | 30 | 250 | 0.0 | 0.0 | 0.00 | 0.00 | 0.00 | 24 | 999.2 |
| 20260507004057 | 30 | 249 | 0.0 | 1.6 | 0.00 | 0.00 | 0.00 | 23 | 999.2 |
| 20260507003556 | 30 | 246 | 0.0 | 1.6 | 0.00 | 0.00 | 0.00 | 23 | 999.0 |
| 20260507003057 | 30 | 255 | 0.0 | 1.6 | 0.00 | 0.00 | 0.00 | 23 | 999.0 |
| 20260507002556 | 30 | 246 | 0.0 | 1.6 | 0.00 | 0.00 | 0.00 | 23 | 998.9 |
| 20260507002056 | 30 | 233 | 0.0 | 1.6 | 0.00 | 0.00 | 0.00 | 23 | 998.8 |
| 20260507001538 | 30 | 252 | 0.0 | 1.6 | 0.00 | 0.00 | 0.00 | 23 | 998.7 |
| 20260507001037 | 30 | 246 | 0.0 | 1.6 | 0.00 | 0.00 | 0.00 | 23 | 998.6 |
| 20260507000539 | 30 | 245 | 0.0 | 4.8 | 0.00 | 0.00 | 0.00 | 22 | 998.6 |
| 20260507000038 | 31 | 245 | 0.0 | 4.8 | 0.00 | 0.00 | 0.00 | 23 | 998.5 |
| 20260506235539 | 31 | 267 | 0.0 | 1.6 | 0.00 | 0.00 | 0.00 | 23 | 998.4 |
| 20260506235037 | 30 | 279 | 0.0 | 1.6 | 0.00 | 0.00 | 0.00 | 23 | 998.4 |
| 20260506234520 | 31 | 228 | 0.0 | 1.6 | 0.00 | 0.00 | 0.00 | 24 | 998.3 |
| 20260506234019 | 31 | 233 | 0.0 | 1.6 | 0.00 | 0.00 | 0.00 | 22 | 998.2 |
| 20260506233520 | 31 | 238 | 0.0 | 1.6 | 0.00 | 0.00 | 0.00 | 23 | 998.2 |
| 20260506233019 | 31 | 258 | 0.0 | 1.6 | 0.00 | 0.00 | 0.00 | 22 | 998.1 |
| 20260506232522 | 31 | 232 | 0.0 | 1.6 | 0.00 | 0.00 | 0.00 | 22 | 998.0 |
| 20260506232019 | 31 | 243 | 0.0 | 1.6 | 0.00 | 0.00 | 0.00 | 22 | 998.1 |
| 20260506231502 | 31 | 264 | 0.0 | 1.6 | 0.00 | 0.00 | 0.00 | 22 | 998.1 |
| 20260506231002 | 31 | 247 | 0.0 | 1.6 | 0.00 | 0.00 | 0.00 | 21 | 998.1 |
| 20260506230501 | 31 | 243 | 0.0 | 1.6 | 0.00 | 0.00 | 0.00 | 21 | 998.1 |
| 20260506230100 | 31 | 255 | 0.0 | 1.6 | 0.00 | 0.00 | 0.00 | 21 | 998.1 |
| 20260506225605 | 31 | 262 | 0.0 | 3.2 | 0.00 | 0.00 | 0.00 | 22 | 998.2 |
| 20260506225100 | 31 | 237 | 0.0 | 3.2 | 0.00 | 0.00 | 0.00 | 22 | 998.3 |
| 20260506224545 | 31 | 243 | 0.0 | 1.6 | 0.00 | 0.00 | 0.00 | 22 | 998.3 |
| 20260506224040 | 31 | 252 | 0.0 | 19.3 | 0.00 | 0.00 | 0.00 | 22 | 998.4 |
| 20260506223539 | 31 | 228 | 8.0 | 19.3 | 0.00 | 0.00 | 0.00 | 21 | 998.5 |
| 20260506223045 | 32 | 243 | 0.0 | 1.6 | 0.00 | 0.00 | 0.00 | 22 | 998.5 |
| 20260506222539 | 32 | 239 | 0.0 | 1.6 | 0.00 | 0.00 | 0.00 | 21 | 998.6 |
| 20260506222043 | 32 | 273 | 0.0 | 1.6 | 0.00 | 0.00 | 0.00 | 21 | 998.5 |
| 20260506221522 | 32 | 226 | 0.0 | 12.9 | 0.00 | 0.00 | 0.00 | 21 | 998.5 |
| 20260506221021 | 32 | 236 | 3.2 | 12.9 | 0.00 | 0.00 | 0.00 | 22 | 998.7 |
| 20260506220519 | 32 | 262 | 0.0 | 1.6 | 0.00 | 0.00 | 0.00 | 22 | 998.7 |
| 20260506220028 | 31 | 290 | 0.0 | 1.6 | 0.00 | 0.00 | 0.00 | 22 | 998.7 |
| 20260506215518 | 31 | 271 | 0.0 | 3.2 | 0.00 | 0.00 | 0.00 | 23 | 998.8 |
| 20260506215018 | 31 | 239 | 0.0 | 1.6 | 0.00 | 0.00 | 0.00 | 22 | 998.9 |
| 20260506214617 | 31 | 259 | 1.6 | 0.0 | 0.00 | 0.00 | 0.00 | 21 | 999.0 |
| 20260506214058 | 32 | 211 | 3.2 | 16.1 | 0.00 | 0.00 | 0.00 | 21 | 999.0 |
| 20260506213558 | 31 | 249 | 4.8 | 17.7 | 0.00 | 0.00 | 0.00 | 22 | 999.1 |
| 20260506213058 | 31 | 205 | 11.3 | 17.7 | 0.00 | 0.00 | 0.00 | 21 | 999.1 |
| 20260506212557 | 32 | 257 | 0.0 | 16.1 | 0.00 | 0.00 | 0.00 | 23 | 999.1 |
| 20260506212056 | 32 | 258 | 3.2 | 16.1 | 0.00 | 0.00 | 0.00 | 21 | 999.2 |
| 20260506211556 | 32 | 249 | 0.0 | 1.6 | 0.00 | 0.00 | 0.00 | 22 | 999.3 |
| 20260506211044 | 32 | 222 | 0.0 | 19.3 | 0.00 | 0.00 | 0.00 | 22 | 999.4 |
| 20260506210545 | 31 | 225 | 6.4 | 22.5 | 0.00 | 0.00 | 0.00 | 23 | 999.4 |
| 20260506210042 | 31 | 243 | 11.3 | 25.7 | 0.00 | 0.00 | 0.00 | 23 | 999.5 |
| 20260506205541 | 31 | 226 | 11.3 | 22.5 | 0.00 | 0.00 | 0.00 | 22 | 999.5 |
| 20260506205041 | 31 | 243 | 9.7 | 19.3 | 0.00 | 0.00 | 0.00 | 22 | 999.6 |
| 20260506204551 | 32 | 251 | 0.0 | 22.5 | 0.00 | 0.00 | 0.00 | 22 | 999.6 |
| 20260506204043 | 32 | 256 | 9.7 | 22.5 | 0.00 | 0.00 | 0.00 | 21 | 999.6 |
| 20260506203538 | 31 | 226 | 0.0 | 17.7 | 0.00 | 0.00 | 0.00 | 22 | 999.6 |
| 20260506203037 | 31 | 251 | 6.4 | 22.5 | 0.00 | 0.00 | 0.00 | 22 | 999.9 |
| 20260506202536 | 31 | 252 | 14.5 | 22.5 | 0.00 | 0.00 | 0.00 | 22 | 1000.1 |
| 20260506202035 | 31 | 270 | 1.6 | 20.9 | 0.00 | 0.00 | 0.00 | 22 | 1000.2 |
| 20260506201538 | 32 | 256 | 11.3 | 20.9 | 0.00 | 0.00 | 0.00 | 21 | 1000.2 |
| 20260506201036 | 31 | 236 | 0.0 | 9.7 | 0.00 | 0.00 | 0.00 | 22 | 1000.3 |
| 20260506200532 | 31 | 246 | 0.0 | 17.7 | 0.00 | 0.00 | 0.00 | 22 | 1000.5 |
| 20260506200034 | 31 | 278 | 6.4 | 17.7 | 0.00 | 0.00 | 0.00 | 22 | 1000.6 |
| 20260506195531 | 31 | 285 | 6.4 | 17.7 | 0.00 | 0.00 | 0.00 | 23 | 1000.7 |
| 20260506195033 | 31 | 259 | 0.0 | 14.5 | 0.00 | 0.00 | 0.00 | 22 | 1000.8 |
| 20260506194528 | 31 | 284 | 3.2 | 22.5 | 0.00 | 0.00 | 0.00 | 22 | 1000.9 |
| 20260506194028 | 31 | 256 | 14.5 | 24.1 | 0.00 | 0.00 | 0.00 | 22 | 1001.2 |
| 20260506193527 | 31 | 239 | 3.2 | 16.1 | 0.00 | 0.00 | 0.00 | 23 | 1001.2 |
| 20260506193026 | 31 | 268 | 0.0 | 16.1 | 0.00 | 0.00 | 0.00 | 22 | 1001.4 |
| 20260506192524 | 30 | 271 | 0.0 | 16.1 | 0.00 | 0.00 | 0.00 | 22 | 1001.4 |
| 20260506192025 | 31 | 259 | 9.7 | 22.5 | 0.00 | 0.00 | 0.00 | 22 | 1001.6 |
| 20260506191526 | 31 | 249 | 11.3 | 22.5 | 0.00 | 0.00 | 0.00 | 21 | 1001.6 |
| 20260506191006 | 31 | 243 | 3.2 | 12.9 | 0.00 | 0.00 | 0.00 | 23 | 1001.7 |
| 20260506190505 | 30 | 253 | 0.0 | 8.0 | 0.00 | 0.00 | 0.00 | 22 | 1001.9 |
| 20260506190006 | 30 | 274 | 3.2 | 16.1 | 0.00 | 0.00 | 0.00 | 22 | 1002.0 |
| 20260506185501 | 30 | 258 | 6.4 | 20.9 | 0.00 | 0.00 | 0.00 | 23 | 1002.1 |
| 20260506185001 | 30 | 231 | 8.0 | 20.9 | 0.00 | 0.00 | 0.00 | 22 | 1002.2 |
| 20260506184700 | 30 | 271 | 12.9 | 19.3 | 0.00 | 0.00 | 0.00 | 22 | 1002.3 |
| 20260506184048 | 30 | 257 | 3.2 | 14.5 | 0.00 | 0.00 | 0.00 | 21 | 1002.4 |
| 20260506183549 | 30 | 239 | 1.6 | 9.7 | 0.00 | 0.00 | 0.00 | 22 | 1002.5 |
| 20260506183100 | 30 | 249 | 0.0 | 1.6 | 0.00 | 0.00 | 0.00 | 23 | 1002.6 |
| 20260506182545 | 30 | 269 | 0.0 | 1.6 | 0.00 | 0.00 | 0.00 | 22 | 1002.6 |
| 20260506182044 | 30 | 270 | 0.0 | 12.9 | 0.00 | 0.00 | 0.00 | 23 | 1002.7 |
| 20260506181549 | 30 | 243 | 1.6 | 12.9 | 0.00 | 0.00 | 0.00 | 22 | 1002.9 |
| 20260506181042 | 29 | 259 | 3.2 | 19.3 | 0.00 | 0.00 | 0.00 | 23 | 1002.9 |
| 20260506180543 | 28 | 243 | 8.0 | 19.3 | 0.00 | 0.00 | 0.00 | 22 | 1003.1 |
| 20260506180040 | 29 | 251 | 9.7 | 19.3 | 0.00 | 0.00 | 0.00 | 23 | 1003.1 |
| 20260506175542 | 28 | 253 | 0.0 | 3.2 | 0.00 | 0.00 | 0.00 | 24 | 1003.2 |
| 20260506175040 | 28 | 266 | 0.0 | 19.3 | 0.00 | 0.00 | 0.00 | 24 | 1003.3 |
| 20260506174539 | 28 | 282 | 0.0 | 19.3 | 0.00 | 0.00 | 0.00 | 25 | 1003.2 |
| 20260506174037 | 28 | 232 | 8.0 | 11.3 | 0.00 | 0.00 | 0.00 | 24 | 1003.3 |
| 20260506173536 | 28 | 246 | 0.0 | 3.2 | 0.00 | 0.00 | 0.00 | 24 | 1003.4 |
| 20260506173034 | 28 | 235 | 0.0 | 11.3 | 0.00 | 0.00 | 0.00 | 25 | 1003.4 |
| 20260506172535 | 28 | 252 | 8.0 | 25.7 | 0.00 | 0.00 | 0.00 | 25 | 1003.6 |
| 20260506172033 | 28 | 253 | 9.7 | 25.7 | 0.00 | 0.00 | 0.00 | 25 | 1003.6 |
| 20260506171540 | 28 | 255 | 4.8 | 19.3 | 0.00 | 0.00 | 0.00 | 27 | 1003.6 |
| 20260506171032 | 27 | 246 | 9.7 | 19.3 | 0.00 | 0.00 | 0.00 | 26 | 1003.7 |
| 20260506170530 | 27 | 246 | 0.0 | 19.3 | 0.00 | 0.00 | 0.00 | 28 | 1003.7 |
| 20260506170034 | 27 | 232 | 9.7 | 19.3 | 0.00 | 0.00 | 0.00 | 27 | 1003.9 |
| 20260506165531 | 27 | 244 | 6.4 | 19.3 | 0.00 | 0.00 | 0.00 | 28 | 1004.0 |
| 20260506165029 | 27 | 239 | 6.4 | 16.1 | 0.00 | 0.00 | 0.00 | 29 | 1004.0 |
| 20260506164633 | 27 | 219 | 0.0 | 1.6 | 0.00 | 0.00 | 0.00 | 29 | 1004.0 |
| 20260506164017 | 27 | 222 | 0.0 | 8.0 | 0.00 | 0.00 | 0.00 | 29 | 1004.1 |
| 20260506163520 | 26 | 253 | 0.0 | 16.1 | 0.00 | 0.00 | 0.00 | 30 | 1004.0 |
| 20260506163017 | 26 | 207 | 8.0 | 17.7 | 0.00 | 0.00 | 0.00 | 29 | 1004.1 |
| 20260506162514 | 26 | 208 | 4.8 | 17.7 | 0.00 | 0.00 | 0.00 | 30 | 1004.1 |
| 20260506162015 | 26 | 211 | 4.8 | 9.7 | 0.00 | 0.00 | 0.00 | 31 | 1004.2 |
| 20260506161513 | 26 | 238 | 0.0 | 8.0 | 0.00 | 0.00 | 0.00 | 31 | 1004.2 |
| 20260506161013 | 26 | 250 | 0.0 | 1.6 | 0.00 | 0.00 | 0.00 | 31 | 1004.2 |
| 20260506160513 | 25 | 246 | 0.0 | 9.7 | 0.00 | 0.00 | 0.00 | 33 | 1004.3 |
| 20260506160010 | 25 | 273 | 0.0 | 9.7 | 0.00 | 0.00 | 0.00 | 32 | 1004.2 |
| 20260506155507 | 25 | 229 | 0.0 | 3.2 | 0.00 | 0.00 | 0.00 | 33 | 1004.3 |
| 20260506155007 | 25 | 246 | 0.0 | 9.7 | 0.00 | 0.00 | 0.00 | 34 | 1004.4 |
| 20260506154506 | 25 | 158 | 1.6 | 19.3 | 0.00 | 0.00 | 0.00 | 32 | 1004.4 |
| 20260506154006 | 25 | 250 | 11.3 | 19.3 | 0.00 | 0.00 | 0.00 | 33 | 1004.4 |
| 20260506153504 | 24 | 114 | 4.8 | 16.1 | 0.00 | 0.00 | 0.00 | 34 | 1004.3 |
| 20260506153005 | 24 | 214 | 6.4 | 17.7 | 0.00 | 0.00 | 0.00 | 33 | 1004.4 |
| 20260506152503 | 24 | 221 | 8.0 | 17.7 | 0.00 | 0.00 | 0.00 | 34 | 1004.4 |
| 20260506152004 | 24 | 243 | 0.0 | 14.5 | 0.00 | 0.00 | 0.00 | 34 | 1004.3 |
| 20260506151501 | 23 | 243 | 4.8 | 16.1 | 0.00 | 0.00 | 0.00 | 33 | 1004.4 |
| 20260506151100 | 23 | 236 | 9.7 | 16.1 | 0.00 | 0.00 | 0.00 | 34 | 1004.4 |
| 20260506150600 | 23 | 232 | 6.4 | 19.3 | 0.00 | 0.00 | 0.00 | 34 | 1004.2 |
| 20260506150106 | 23 | 226 | 8.0 | 19.3 | 0.00 | 0.00 | 0.00 | 34 | 1004.3 |
| 20260506145558 | 23 | 251 | 0.0 | 1.6 | 0.00 | 0.00 | 0.00 | 35 | 1004.4 |
| 20260506145058 | 23 | 238 | 0.0 | 1.6 | 0.00 | 0.00 | 0.00 | 35 | 1004.4 |
| 20260506144608 | 23 | 239 | 0.0 | 1.6 | 0.00 | 0.00 | 0.00 | 34 | 1004.3 |
| 20260506144056 | 23 | 253 | 0.0 | 1.6 | 0.00 | 0.00 | 0.00 | 36 | 1004.4 |
| 20260506143537 | 23 | 232 | 0.0 | 1.6 | 0.00 | 0.00 | 0.00 | 35 | 1004.3 |
| 20260506143045 | 22 | 250 | 0.0 | 1.6 | 0.00 | 0.00 | 0.00 | 35 | 1004.3 |
| 20260506142536 | 22 | 246 | 0.0 | 1.6 | 0.00 | 0.00 | 0.00 | 36 | 1004.3 |
| 20260506142034 | 22 | 270 | 0.0 | 1.6 | 0.00 | 0.00 | 0.00 | 37 | 1004.2 |
| 20260506141533 | 22 | 236 | 0.0 | 1.6 | 0.00 | 0.00 | 0.00 | 41 | 1004.3 |
| 20260506141034 | 22 | 236 | 0.0 | 0.0 | 0.00 | 0.00 | 0.00 | 43 | 1004.2 |
| 20260506140514 | 21 | 274 | 0.0 | 0.0 | 0.00 | 0.00 | 0.00 | 43 | 1004.2 |
| 20260506140014 | 21 | 249 | 0.0 | 0.0 | 0.00 | 0.00 | 0.00 | 44 | 1004.1 |
| 20260506135511 | 21 | 280 | 0.0 | 0.0 | 0.00 | 0.00 | 0.00 | 45 | 1004.1 |
| 20260506135010 | 21 | 256 | 0.0 | 0.0 | 0.00 | 0.00 | 0.00 | 46 | 1004.1 |
| 20260506134509 | 21 | 219 | 0.0 | 0.0 | 0.00 | 0.00 | 0.00 | 46 | 1004.0 |
| 20260506134008 | 20 | 66 | 0.0 | 0.0 | 0.00 | 0.00 | 0.00 | 50 | 1004.0 |
| 20260506133554 | 19 | 67 | 0.0 | 0.0 | 0.00 | 0.00 | 0.00 | 54 | 1003.9 |
| 20260506133051 | 19 | 66 | 0.0 | 1.6 | 0.00 | 0.00 | 0.00 | 54 | 1003.9 |
| 20260506132549 | 20 | 61 | 0.0 | 1.6 | 0.00 | 0.00 | 0.00 | 51 | 1003.8 |
| 20260506132049 | 20 | 246 | 0.0 | 0.0 | 0.00 | 0.00 | 0.00 | 49 | 1003.8 |
| 20260506131552 | 20 | 246 | 0.0 | 1.6 | 0.00 | 0.00 | 0.00 | 47 | 1003.6 |
| 20260506131048 | 19 | 260 | 0.0 | 1.6 | 0.00 | 0.00 | 0.00 | 50 | 1003.5 |
| 20260506130529 | 18 | 243 | 0.0 | 0.0 | 0.00 | 0.00 | 0.00 | 54 | 1003.3 |
| 20260506130028 | 20 | 243 | 0.0 | 0.0 | 0.00 | 0.00 | 0.00 | 51 | 1003.3 |
| 20260506125525 | 20 | 243 | 0.0 | 0.0 | 0.00 | 0.00 | 0.00 | 49 | 1003.2 |
| 20260506125024 | -17 | 0.0 | 0.0 | 0.00 | 0.00 | 0.00 | 1003.1 | ||
| 20260506124523 | -17 | 0.0 | 0.0 | 0.00 | 0.00 | 0.00 | 1003.1 | ||
| 20260506124022 | -17 | 0.0 | 0.0 | 0.00 | 0.00 | 0.00 | 1003.0 | ||
| 20260506123503 | -17 | 0.0 | 0.0 | 0.00 | 0.00 | 0.00 | 1003.0 | ||
| 20260506123001 | -17 | 0.0 | 0.0 | 0.00 | 0.00 | 0.00 | 1003.0 | ||
| 20260506122559 | -17 | 0.0 | 0.0 | 0.00 | 0.00 | 0.00 | 1003.0 | ||
| 20260506122059 | -17 | 0.0 | 0.0 | 0.00 | 0.00 | 0.00 | 1003.0 | ||
| 20260506121557 | -17 | 0.0 | 0.0 | 0.00 | 0.00 | 0.00 | 1002.9 | ||
| 20260506121056 | -17 | 0.0 | 0.0 | 0.00 | 0.00 | 0.00 | 1002.9 | ||
| 20260506120537 | -17 | 0.0 | 0.0 | 0.00 | 0.00 | 0.00 | 1002.8 | ||
| 20260506120041 | -17 | 0.0 | 0.0 | 0.00 | 0.00 | 0.00 | 1002.8 | ||
| 20260506115534 | -17 | 0.0 | 0.0 | 0.00 | 0.00 | 0.00 | 1002.9 | ||
| 20260506115032 | -17 | 0.0 | 0.0 | 0.00 | 0.00 | 0.00 | 1002.9 | ||
| 20260506114540 | -17 | 0.0 | 0.0 | 0.00 | 0.00 | 0.00 | 1002.9 | ||
| 20260506114030 | -17 | 0.0 | 0.0 | 0.00 | 0.00 | 0.00 | 1002.8 | ||
| 20260506113512 | -17 | 0.0 | 0.0 | 0.00 | 0.00 | 0.00 | 1002.8 | ||
| 20260506113009 | -17 | 0.0 | 0.0 | 0.00 | 0.00 | 0.00 | 1002.8 | ||
| 20260506112509 | -17 | 0.0 | 0.0 | 0.00 | 0.00 | 0.00 | 1002.7 | ||
| 20260506112006 | -17 | 0.0 | 0.0 | 0.00 | 0.00 | 0.00 | 1002.6 | ||
| 20260506111508 | -17 | 0.0 | 0.0 | 0.00 | 0.00 | 0.00 | 1002.6 | ||
| 20260506111004 | -17 | 0.0 | 0.0 | 0.00 | 0.00 | 0.00 | 1002.6 | ||
| 20260506110545 | -17 | 0.0 | 0.0 | 0.00 | 0.00 | 0.00 | 1002.6 | ||
| 20260506110050 | -17 | 0.0 | 0.0 | 0.00 | 0.00 | 0.00 | 1002.7 | ||
| 20260506105543 | -17 | 0.0 | 0.0 | 0.00 | 0.00 | 0.00 | 1002.6 | ||
| 20260506105041 | -17 | 0.0 | 0.0 | 0.00 | 0.00 | 0.00 | 1002.4 | ||
| 20260506104539 | -17 | 0.0 | 0.0 | 0.00 | 0.00 | 0.00 | 1002.4 | ||
| 20260506104038 | -17 | 0.0 | 0.0 | 0.00 | 0.00 | 0.00 | 1002.4 | ||
| 20260506103519 | -17 | 0.0 | 0.0 | 0.00 | 0.00 | 0.00 | 1002.4 | ||
| 20260506103017 | -17 | 0.0 | 0.0 | 0.00 | 0.00 | 0.00 | 1002.4 | ||
| 20260506102517 | 18 | 47 | 0.0 | 0.0 | 0.00 | 0.00 | 0.00 | 54 | 1002.4 |
| 20260506102016 | 18 | 47 | 0.0 | 0.0 | 0.00 | 0.00 | 0.00 | 54 | 1002.3 |
| 20260506101532 | 18 | 47 | 0.0 | 0.0 | 0.00 | 0.00 | 0.00 | 54 | 1002.3 |
| 20260506101015 | 18 | 47 | 0.0 | 0.0 | 0.00 | 0.00 | 0.00 | 54 | 1002.3 |
| 20260506100559 | 18 | 266 | 0.0 | 0.0 | 0.00 | 0.00 | 0.00 | 54 | 1002.3 |
| 20260506100056 | 18 | 266 | 0.0 | 0.0 | 0.00 | 0.00 | 0.00 | 54 | 1002.3 |
| 20260506095559 | 18 | 266 | 0.0 | 0.0 | 0.00 | 0.00 | 0.00 | 54 | 1002.3 |
| 20260506095055 | 18 | 266 | 0.0 | 0.0 | 0.00 | 0.00 | 0.00 | 54 | 1002.2 |
| 20260506094558 | 18 | 266 | 0.0 | 0.0 | 0.00 | 0.00 | 0.00 | 53 | 1002.2 |
| 20260506094054 | 18 | 266 | 0.0 | 0.0 | 0.00 | 0.00 | 0.00 | 53 | 1002.1 |
| 20260506093540 | 18 | 264 | 0.0 | 0.0 | 0.00 | 0.00 | 0.00 | 52 | 1002.2 |
| 20260506093037 | 19 | 264 | 0.0 | 0.0 | 0.00 | 0.00 | 0.00 | 52 | 1002.1 |
| 20260506092538 | 19 | 263 | 0.0 | 0.0 | 0.00 | 0.00 | 0.00 | 51 | 1002.1 |
| 20260506092037 | 19 | 263 | 0.0 | 0.0 | 0.00 | 0.00 | 0.00 | 50 | 1002.0 |
| 20260506091537 | 20 | 256 | 0.0 | 0.0 | 0.00 | 0.00 | 0.00 | 49 | 1002.0 |
| 20260506091038 | 20 | 285 | 0.0 | 0.0 | 0.00 | 0.00 | 0.00 | 48 | 1002.0 |
| 20260506090517 | 20 | 46 | 0.0 | 0.0 | 0.00 | 0.00 | 0.00 | 48 | 1002.0 |
| 20260506090020 | 20 | 46 | 0.0 | 0.0 | 0.00 | 0.00 | 0.00 | 47 | 1002.0 |
| 20260506085517 | 20 | 46 | 0.0 | 0.0 | 0.00 | 0.00 | 0.00 | 47 | 1002.1 |
| 20260506085019 | 20 | 47 | 0.0 | 0.0 | 0.00 | 0.00 | 0.00 | 47 | 1002.1 |
| 20260506084521 | 20 | 46 | 0.0 | 0.0 | 0.00 | 0.00 | 0.00 | 47 | 1002.2 |
| 20260506084017 | 21 | 46 | 0.0 | 0.0 | 0.00 | 0.00 | 0.00 | 46 | 1002.2 |
| 20260506083501 | 21 | 46 | 0.0 | 0.0 | 0.00 | 0.00 | 0.00 | 45 | 1002.3 |
| 20260506083101 | 21 | 46 | 0.0 | 0.0 | 0.00 | 0.00 | 0.00 | 45 | 1002.3 |
| 20260506082559 | 21 | 307 | 0.0 | 0.0 | 0.00 | 0.00 | 0.00 | 44 | 1002.3 |
| 20260506082104 | 21 | 20 | 0.0 | 0.0 | 0.00 | 0.00 | 0.00 | 44 | 1002.4 |
| 20260506081602 | 21 | 20 | 0.0 | 0.0 | 0.00 | 0.00 | 0.00 | 43 | 1002.4 |
| 20260506081100 | 22 | 297 | 0.0 | 1.6 | 0.00 | 0.00 | 0.00 | 42 | 1002.4 |
| 20260506080601 | 22 | 246 | 0.0 | 1.6 | 0.00 | 0.00 | 0.00 | 41 | 1002.3 |
| 20260506073023 | 22 | 136 | 0.0 | 4.8 | 0.00 | 0.00 | 0.00 | 42 | 1002.6 |
| 20260506072524 | 22 | 133 | 0.0 | 6.4 | 0.00 | 0.00 | 0.00 | 42 | 1002.7 |
| 20260506072023 | 22 | 129 | 0.0 | 6.4 | 0.00 | 0.00 | 0.00 | 42 | 1002.8 |
| 20260506071523 | 22 | 132 | 0.0 | 4.8 | 0.00 | 0.00 | 0.00 | 42 | 1002.8 |
| 20260506071022 | 22 | 60 | 0.0 | 8.0 | 0.00 | 0.00 | 0.00 | 42 | 1002.8 |
| 20260506070522 | 22 | 129 | 0.0 | 8.0 | 0.00 | 0.00 | 0.00 | 42 | 1002.9 |
| 20260506062052 | 22 | 143 | 0.0 | 6.4 | 0.00 | 0.00 | 0.00 | 41 | 1003.3 |
| 20260506061552 | 22 | 89 | 0.0 | 6.4 | 0.00 | 0.00 | 0.00 | 41 | 1003.4 |
| 20260506061052 | 22 | 191 | 0.0 | 4.8 | 0.00 | 0.00 | 0.00 | 41 | 1003.3 |
| 20260506060554 | 22 | 148 | 0.0 | 3.2 | 0.00 | 0.00 | 0.00 | 40 | 1003.4 |
| 20260506051052 | 23 | 63 | 0.0 | 0.0 | 0.00 | 0.00 | 0.00 | 41 | 1003.5 |
| 20260506050550 | 23 | 59 | 0.0 | 1.6 | 0.00 | 0.00 | 0.00 | 40 | 1003.4 |
| 20260506045049 | 23 | 75 | 0.0 | 1.6 | 0.00 | 0.00 | 0.00 | 39 | 1003.4 |
| 20260506044551 | 23 | 53 | 0.0 | 1.6 | 0.00 | 0.00 | 0.00 | 39 | 1003.5 |
| 20260506044048 | 23 | 64 | 0.0 | 0.0 | 0.00 | 0.00 | 0.00 | 38 | 1003.4 |
| 20260506043549 | 23 | 64 | 0.0 | 0.0 | 0.00 | 0.00 | 0.00 | 38 | 1003.3 |
| 20260506043030 | 23 | 65 | 0.0 | 0.0 | 0.00 | 0.00 | 0.00 | 38 | 1003.3 |
| 20260506042531 | 23 | 68 | 0.0 | 0.0 | 0.00 | 0.00 | 0.00 | 37 | 1003.3 |
| 20260506042034 | 23 | 67 | 0.0 | 0.0 | 0.00 | 0.00 | 0.00 | 36 | 1003.2 |
| 20260506041542 | 23 | 63 | 0.0 | 3.2 | 0.00 | 0.00 | 0.00 | 34 | 1003.2 |
| 20260506041029 | 24 | 74 | 0.0 | 3.2 | 0.00 | 0.00 | 0.00 | 32 | 1003.0 |
| 20260506040529 | 25 | 50 | 0.0 | 1.6 | 0.00 | 0.00 | 0.00 | 30 | 1002.8 |
| 20260506040012 | 25 | 236 | 0.0 | 1.6 | 0.00 | 0.00 | 0.00 | 28 | 1002.8 |
| 20260506035512 | 26 | 235 | 0.0 | 1.6 | 0.00 | 0.00 | 0.00 | 27 | 1002.6 |
| 20260506035012 | 26 | 252 | 0.0 | 8.0 | 0.00 | 0.00 | 0.00 | 27 | 1002.5 |
| 20260506034512 | 26 | 236 | 1.6 | 8.0 | 0.00 | 0.00 | 0.00 | 27 | 1002.3 |
| 20260506034012 | 26 | 236 | 0.0 | 6.4 | 0.00 | 0.00 | 0.00 | 27 | 1002.1 |
| 20260506033511 | 26 | 218 | 0.0 | 8.0 | 0.00 | 0.00 | 0.00 | 27 | 1002.0 |
| 20260506033100 | 26 | 212 | 0.0 | 9.7 | 0.00 | 0.00 | 0.00 | 27 | 1001.9 |
| 20260506032554 | 26 | 212 | 0.0 | 9.7 | 0.00 | 0.00 | 0.00 | 27 | 1001.8 |
| 20260506032054 | 26 | 240 | 0.0 | 14.5 | 0.00 | 0.00 | 0.00 | 27 | 1001.8 |
| 20260506031557 | 26 | 207 | 6.4 | 14.5 | 0.00 | 0.00 | 0.00 | 27 | 1001.7 |
| 20260506031056 | 26 | 236 | 0.0 | 1.6 | 0.00 | 0.00 | 0.00 | 27 | 1001.6 |
| 20260506030557 | 26 | 243 | 0.0 | 1.6 | 0.00 | 0.00 | 0.00 | 27 | 1001.5 |